Weather Roundup
Issued by NWS Corpus Christi, TX

Home | Current Version | Previous Version | Text Only | Print | Product List | Glossary On
Versions: 1 2 3 4 5 6 7 8 9 10 11 12 13 14 15 16 17 18 19 20 21 22 23 24 25 26 27 28 29 30 31 32 33 34 35 36 37 38 39 40 41 42 43 44 45 46 47 48 49 50
000
ASUS44 KCRP 222110
HRRCRP

SOUTH TEXAS REGIONAL WEATHER ROUNDUP
NATIONAL WEATHER SERVICE CORPUS CHRISTI TX
400 PM CDT FRI MAY 22 2015


TXZ229>244-222200-
...CORPUS CHRISTI AREA OBSERVATIONS...

CITY           SKY/WX    TMP DP  RH WIND       PRES   REMARKS
CORPUS CHRISTI PTSUNNY   86  75  69 SE17      30.01F HX  95
NAS CORPUS CHR PTSUNNY   84  76  76 SE17      30.02F HX  93
ROCKPORT       PTSUNNY   85  76  74 SE17G25   30.02  HX  94
KINGSVILLE NAS PTSUNNY   88  79  74 SE15      29.99F HX 103
ALICE          MOSUNNY   91  75  59 SE17G24   29.98F HX 101
FALFURRIAS     MOSUNNY   90  73  56 SE13      29.97F HX  98
$$

...VICTORIA AREA OBSERVATIONS...

CITY           SKY/WX    TMP DP  RH WIND       PRES   REMARKS
VICTORIA       PTSUNNY   81  74  79 SE20G25   30.05F
BEEVILLE       PTSUNNY   86  77  73 SE12G20   30.01F HX  97
PLEASANTON     PTSUNNY   85  71  62 SE10      30.02F HX  90
SAN ANTONIO    PTSUNNY   83  71  67 SE12      30.04F
$$

...LAREDO AREA OBSERVATIONS...

CITY           SKY/WX    TMP DP  RH WIND       PRES   REMARKS
LAREDO         MOSUNNY   89  71  55 S17G23    29.99F HX  95
COTULLA        PTSUNNY   87  71  58 S10       29.99F HX  93
DEL RIO        MOSUNNY   82  69  64 E14G22    29.98F
MCALLEN        MOSUNNY   91  75  59 SE17      29.98F HX 101
HEBBRONVILLE     N/A     88  70  55 SE14      30.00F HX  92
$$

...OTHER TEXAS OBSERVATIONS...

CITY           SKY/WX    TMP DP  RH WIND       PRES   REMARKS
BROWNSVILLE    CLOUDY    87  74  64 SE17      30.00F HX  95
HOUSTON        PTSUNNY   78  69  73 E10G18    30.11F
COL. STATION   CLOUDY    78  68  71 SE9       30.09F
AUSTIN         CLOUDY    77  71  82 E10       30.06F
WACO           CLOUDY    75  66  73 S9        30.10S
FORT WORTH     CLOUDY    65  61  87 NE7       30.11F
WICHITA FALLS  LGT RAIN  59  56  89 E13       30.12F
LUBBOCK        CLOUDY    62  58  86 SE9       30.09F
EL PASO        MOSUNNY   88  25  10 SW18G26   29.94F
$$

...MARINE OBSERVATIONS...

STATION/POSITION TIME  SKY/WX   TEMP    WIND        PRES    VSBY  WAVE   SWELL
                                AIR SEA DIR/SP/G                  HT/PER HT/PER
                 (UTC)          (F)     (DEG/KT/KT) (MB)    (MI)  (FT/S) (FT/S)
PORT ARANSAS     2100            80 82  100/ 16/ 17 1017.2F
BUOY 90 E PORT A 2050            80 80  130/ 12/ 14 1018.0F         4/ 5   2/ 6
BUOY 45 SE BAFFI 2050            81 81  150/ 14/ 17 1016.3F         4/ 6
BUOY 200 E PT IS 2050            81 81  150/ 12/ 14 1017.6F         2/ 5   2/ 6
BUOY 15 E GALVES 2050            77 80   90/ 14/ 17 1018.8F         3/ 5
$$


USA.gov is the U.S. government's official web portal to all federal, state and local government web resources and services.